Weather History for KLSE - March, 2013

Change the Weather History Date:

Saturday, March 30, 2013

  Actual Average Record
Temperature  
Mean Temperature 42 °F 41 °F  
Max Temperature 49 °F 51 °F 80 °F (1967)
Min Temperature 35 °F 31 °F 2 °F (1969)
Degree Days  
Heating Degree Days 23 24  
Month to date heating degree days 1166 921  
Since 1 July heating degree days 6495 6430  
Cooling Degree Days 0 0  
Month to date cooling degree days 0 0  
Year to date cooling degree days 0 0  
Moisture  
Dew Point 37 °F    
Average Humidity 80    
Maximum Humidity 100    
Minimum Humidity 59    
Precipitation  
Precipitation 0.31 in 0.09 in 1.03 in (1934)
Month to date precipitation 2.12 1.96  
Year to date precipitation 4.52 4.13  
Snow  
Snow 0.00 in 0.20 in 9.50 in (1934)
Month to date snowfall 15.6 7.0  
Since 1 July snowfall 55.6 41.5  
Snow Depth 1.00 in    
Sea Level Pressure  
Sea Level Pressure 29.92 in    
Wind  
Wind Speed 7 mph (South)    
Max Wind Speed 20 mph    
Max Gust Speed 28 mph    
Visibility 5 miles    
Events Fog , Rain    
T = Trace of Precipitation, MM = Missing Value Source: NWS Daily Summary

Daily Weather History Graph

Daily Weather History Graph

Search for Another Location

Airport or City:

Trip Planner

Search our weather history database for the weather conditions in past years. The results will help you decide how hot, cold, wet, or windy it might be!

Date:

Astronomy

Mar. 30, 2013 Rise Set
Actual Time 6:49 AM CDT 7:29 PM CDT
Civil Twilight 6:20 AM CDT 7:58 PM CDT
Nautical Twilight 5:46 AM CDT 8:33 PM CDT
Astronomical Twilight 5:10 AM CDT 9:09 PM CDT
Moon 11:45 PM CDT (3/30) 8:37 AM CDT (3/30)
Length of Visible Light 13h 38m
Length of Day
12h 40m
Waning Gibbous, 86% of the Moon is Illuminated
Mar 30
Waning Gibbous
Apr 2
Last Quarter
Apr 10
New
Apr 18
First Quarter
Apr 25
Full

Hourly Weather History & Observations

Time (CDT) Temp. Windchill Dew Point Humidity Pressure Visibility Wind Dir Wind Speed Gust Speed Precip Events Conditions
12:53 AM 39.0 °F 35.7 °F 27.0 °F 62% 30.16 in 10.0 mi SSE 4.6 mph - N/A   Overcast
1:53 AM 37.9 °F 35.5 °F 28.0 °F 68% 30.14 in 10.0 mi SE 3.5 mph - N/A   Overcast
2:53 AM 37.9 °F 34.4 °F 28.9 °F 70% 30.12 in 10.0 mi SE 4.6 mph - N/A   Overcast
3:53 AM 37.9 °F 34.4 °F 28.9 °F 70% 30.10 in 10.0 mi SSE 4.6 mph - N/A   Overcast
4:53 AM 39.0 °F 34.8 °F 28.9 °F 67% 30.08 in 10.0 mi SSE 5.8 mph - N/A   Overcast
5:53 AM 39.0 °F 33.4 °F 28.9 °F 67% 30.05 in 10.0 mi South 8.1 mph - N/A   Overcast
6:53 AM 39.0 °F 32.8 °F 28.9 °F 67% 30.04 in 10.0 mi South 9.2 mph - N/A   Overcast
7:53 AM 41.0 °F 32.5 °F 28.9 °F 62% 30.02 in 10.0 mi South 17.3 mph - N/A   Overcast
8:53 AM 42.1 °F 34.2 °F 30.0 °F 62% 30.00 in 10.0 mi South 16.1 mph - N/A   Clear
9:53 AM 44.1 °F 37.4 °F 32.0 °F 63% 29.99 in 10.0 mi South 13.8 mph - N/A   Partly Cloudy
10:53 AM 46.9 °F - 34.0 °F 61% 29.96 in 10.0 mi South 17.3 mph - N/A   Mostly Cloudy
11:53 AM 46.9 °F - 35.1 °F 63% 29.94 in 10.0 mi South 13.8 mph - N/A   Mostly Cloudy
12:53 PM 48.0 °F - 37.0 °F 66% 29.92 in 9.0 mi South 10.4 mph - 0.00 in   Overcast
1:46 PM 48.2 °F - 37.4 °F 66% 29.89 in 9.0 mi SSW 11.5 mph - N/A   Overcast
1:53 PM 48.0 °F - 39.0 °F 71% 29.91 in 9.0 mi SSW 8.1 mph - N/A   Overcast
2:49 PM 46.4 °F 42.4 °F 42.8 °F 87% 29.86 in 2.5 mi SSW 8.1 mph - 0.06 in Rain Rain
2:53 PM 46.0 °F 42.5 °F 42.1 °F 86% 29.88 in 2.5 mi SW 6.9 mph - 0.07 in Rain Light Rain
3:04 PM 44.6 °F 42.2 °F 42.8 °F 93% 29.86 in 1.2 mi WSW 4.6 mph - 0.02 in Rain Rain
3:53 PM 44.1 °F 39.5 °F 43.0 °F 96% 29.87 in 1.2 mi SSE 8.1 mph - 0.20 in Rain Rain
4:09 PM 44.6 °F 41.4 °F 42.8 °F 93% 29.85 in 2.0 mi South 5.8 mph - 0.01 in Rain Light Rain
4:13 PM 44.6 °F 41.4 °F 42.8 °F 93% 29.85 in 2.0 mi South 5.8 mph - 0.01 in Rain Light Rain
4:15 PM 44.6 °F 42.2 °F 42.8 °F 93% 29.85 in 1.8 mi SSW 4.6 mph - 0.01 in Rain Light Rain
4:40 PM 44.6 °F 42.2 °F 42.8 °F 93% 29.85 in 1.2 mi Variable 4.6 mph - 0.02 in Rain Light Rain
4:48 PM 42.8 °F 38.0 °F 41.0 °F 93% 29.85 in 0.5 mi NNW 8.1 mph - 0.03 in Fog , Rain Light Rain
4:53 PM 43.0 °F 40.3 °F 41.0 °F 93% 29.87 in 0.5 mi NNW 4.6 mph - 0.03 in Fog , Rain Light Rain
5:23 PM 42.8 °F 41.1 °F 42.8 °F 100% 29.85 in 0.2 mi North 3.5 mph - 0.01 in Fog Fog
5:51 PM 44.6 °F 40.7 °F 42.8 °F 93% 29.85 in 1.2 mi WNW 6.9 mph - 0.01 in   Overcast
5:53 PM 43.0 °F 38.2 °F 42.1 °F 97% 29.87 in 2.5 mi WNW 8.1 mph - 0.01 in   Overcast
6:00 PM 42.8 °F 36.6 °F 39.2 °F 87% 29.85 in 4.0 mi West 11.5 mph - N/A   Overcast
6:53 PM 41.0 °F - 39.0 °F 93% 29.88 in 3.0 mi Calm Calm - N/A   Overcast
7:26 PM 41.0 °F - 39.2 °F 93% 29.85 in 2.5 mi Calm Calm - N/A   Overcast
7:53 PM 39.0 °F - 37.9 °F 96% 29.88 in 2.0 mi Calm Calm - N/A   Overcast
8:08 PM 41.0 °F - 39.2 °F 93% 29.85 in 3.0 mi Calm Calm - N/A   Overcast
8:26 PM 39.2 °F - 37.4 °F 93% 29.86 in 2.5 mi Calm Calm - N/A   Overcast
8:33 PM 39.2 °F - 37.4 °F 93% 29.85 in 0.8 mi Calm Calm - N/A   Overcast
8:53 PM 39.0 °F - 37.9 °F 96% 29.88 in 0.2 mi Calm Calm - N/A Fog Fog
9:32 PM 39.2 °F - 37.4 °F 93% 29.86 in 0.5 mi Calm Calm - N/A Fog Fog
9:53 PM 39.0 °F - 37.9 °F 96% 29.88 in 0.2 mi Calm Calm - N/A Fog Fog
10:06 PM 39.2 °F - 39.2 °F 100% 29.86 in 0.8 mi Calm Calm - N/A   Overcast
10:53 PM 37.0 °F 34.5 °F 37.0 °F 100% 29.87 in 1.0 mi SSE 3.5 mph - N/A   Overcast
11:16 PM 39.2 °F 37.0 °F 37.4 °F 93% 29.84 in 2.0 mi South 3.5 mph - N/A   Overcast
11:53 PM 39.0 °F 35.7 °F 37.9 °F 96% 29.85 in 2.5 mi South 4.6 mph - N/A   Mostly Cloudy